Date,TemperatureHighF,TemperatureAvgF,TemperatureLowF,DewpointHighF,DewpointAvgF,DewpointLowF,HumidityHigh,HumidityAvg,HumidityLow,PressureMaxIn,PressureMinIn,WindSpeedMaxMPH,WindSpeedAvgMPH,GustSpeedMaxMPH,PrecipitationSumIn
2013-1-1,50,48,45,49,41,27,98,79,45,30.13,29.93,3,0,7,0.26
2013-1-2,49,48,45,49,44,39,99,88,71,30.15,29.89,2,0,8,0.06
2013-1-3,44,34,41,40,10,-100,89,67,78,30.27,30.10,2,-204,3,0.00
2013-1-4,50,15,34,32,-60,-100,90,14,34,30.34,30.21,3,-676,7,0.00
2013-1-5,50,16,38,27,-57,-100,58,13,30,30.39,30.22,3,-652,5,0.00
2013-1-6,52,26,39,40,-25,-100,93,39,57,30.22,30.04,2,-452,6,0.00
2013-1-7,52,40,29,31,29,27,92,68,39,30.43,30.19,3,0,6,0.00
2013-1-8,56,44,30,40,35,27,92,73,52,30.45,30.35,1,0,3,0.00
2013-1-9,66,52,38,50,44,36,94,76,50,30.44,30.36,3,0,4,0.00
2013-1-10,69,57,46,51,47,42,97,71,47,30.48,30.35,5,0,8,0.00
2013-1-11,53,50,47,51,49,46,99,96,85,30.34,30.15,2,0,7,0.01
2013-1-12,74,60,50,62,56,50,100,88,63,30.16,30.07,4,0,7,0.00
2013-1-13,73,63,54,60,57,53,99,83,59,30.12,30.03,6,1,10,0.00
2013-1-14,68,63,60,64,60,56,97,90,84,30.10,30.03,3,0,6,0.12
2013-1-15,63,51,44,60,50,43,99,96,90,30.16,30.04,3,0,6,0.01
2013-1-16,51,46,42,51,46,42,99,99,97,30.05,29.97,2,0,8,0.23
2013-1-17,52,46,35,52,46,34,100,98,92,30.17,29.77,7,1,25,1.62
2013-1-18,49,37,30,34,28,17,98,74,29,30.52,30.18,5,0,8,0.00
2013-1-19,55,38,25,31,26,20,96,70,27,30.50,30.18,3,0,6,0.01
2013-1-20,64,45,30,36,31,28,92,63,30,30.17,30.01,3,0,8,0.00
2013-1-21,60,45,29,35,26,13,94,56,27,30.08,29.91,6,1,9,0.00
2013-1-22,45,37,27,14,7,-3,49,30,15,30.26,30.00,7,0,12,0.00
2013-1-23,46,33,21,26,14,2,77,48,25,30.37,30.07,4,0,7,0.00
2013-1-24,50,37,27,33,17,1,85,47,25,30.50,29.99,7,1,17,0.00
2013-1-25,26,25,21,24,14,3,89,65,37,30.51,30.14,2,0,7,0.03
2013-1-26,45,32,24,34,28,22,94,85,60,30.37,30.11,1,0,3,0.01
2013-1-27,44,36,26,30,26,22,95,67,48,30.57,30.38,3,0,5,0.01
2013-1-28,50,42,33,47,35,27,92,78,59,30.49,30.26,2,0,6,0.01
2013-1-29,72,57,40,58,50,39,99,81,57,30.26,30.03,6,1,13,0.00
2013-1-30,75,66,50,63,59,47,93,80,57,30.04,29.41,11,3,16,0.60
2013-1-31,50,45,36,46,26,15,86,51,27,30.03,29.54,12,2,17,0.01
2013-2-1,42,37,26,27,11,-2,57,36,17,30.37,29.93,9,1,12,0.00
2013-2-2,47,35,22,34,14,6,78,45,22,30.40,30.06,11,1,18,0.00
2013-2-3,54,42,32,35,27,16,93,61,26,30.06,29.85,7,1,12,0.00
2013-2-4,50,38,26,27,23,20,82,58,32,30.14,30.01,3,0,6,0.00
2013-2-5,64,48,34,42,33,26,86,60,39,30.01,29.87,4,0,11,0.00
2013-2-6,64,48,34,41,30,23,97,59,22,30.21,29.98,4,0,7,0.00
2013-2-7,48,42,40,40,34,23,95,74,38,30.26,29.96,4,0,14,0.42
2013-2-8,60,46,38,45,37,26,97,73,47,30.09,29.86,7,0,13,0.04
2013-2-9,57,42,28,28,22,9,92,53,15,30.33,30.09,3,0,8,0.00
2013-2-10,58,46,31,47,29,17,94,57,24,30.44,30.19,5,0,8,0.11
2013-2-11,60,56,49,59,54,47,98,92,81,30.19,29.93,10,2,13,0.12
2013-2-12,61,52,43,50,38,24,97,65,25,30.09,29.90,3,0,7,0.07
2013-2-13,48,46,38,46,43,35,97,92,69,29.94,29.64,4,0,8,0.05
2013-2-14,52,40,29,38,32,28,98,76,47,30.07,29.87,3,0,8,0.00
2013-2-15,62,46,29,40,31,26,98,64,27,30.10,29.93,6,1,11,0.00
2013-2-16,46,36,26,35,31,23,94,84,60,30.00,29.82,4,0,8,0.09
2013-2-17,40,30,20,22,17,9,88,64,28,30.28,30.00,5,1,10,0.08
2013-2-18,54,38,21,26,21,14,87,55,27,30.40,30.23,3,0,9,0.00
2013-2-19,47,40,36,43,34,24,96,80,55,30.23,29.89,7,1,11,0.24
2013-2-20,54,41,26,27,18,9,84,44,17,30.12,30.01,4,0,7,0.00
2013-2-21,57,43,27,33,18,10,74,42,19,30.24,30.10,3,0,6,0.00
2013-2-22,47,38,36,36,35,26,96,88,44,30.30,30.11,3,0,9,0.28
2013-2-23,43,40,36,42,39,35,97,96,95,30.13,29.84,2,0,3,0.40
2013-2-24,65,50,40,44,37,24,98,67,22,30.01,29.83,3,0,10,0.00
2013-2-25,44,40,38,32,25,22,75,55,45,30.17,30.01,5,0,9,0.00
2013-2-26,47,39,33,47,37,23,99,92,55,30.07,29.57,3,0,12,0.44
2013-2-27,56,46,34,41,36,32,99,73,47,29.82,29.66,5,1,11,0.00
2013-2-28,50,42,33,35,28,22,93,61,34,29.89,29.71,5,0,11,0.00
2013-3-1,47,40,27,32,27,24,91,63,45,29.93,29.86,4,0,7,0.00
2013-3-2,44,38,31,36,31,23,94,75,60,29.94,29.83,3,0,6,0.06
2013-3-3,45,35,24,25,18,14,85,55,31,30.02,29.89,4,0,10,0.00
2013-3-4,53,38,22,28,17,12,82,48,20,30.15,30.01,5,0,8,0.00
2013-3-5,57,46,36,49,37,26,97,74,59,30.07,29.59,3,0,8,0.28
2013-3-6,50,41,34,44,26,20,96,57,35,30.11,29.60,7,1,19,0.01
2013-3-7,54,40,27,27,25,23,88,59,35,30.26,30.12,7,0,13,0.00
2013-3-8,56,43,28,25,22,18,80,47,23,30.32,30.19,4,0,15,0.00
2013-3-9,62,48,32,34,28,23,76,49,26,30.35,30.22,4,0,9,0.00
2013-3-10,68,52,36,39,34,31,88,55,27,30.29,30.15,3,0,8,0.00
2013-3-11,70,56,42,54,41,25,90,57,40,30.19,29.84,6,1,10,0.06
2013-3-12,70,60,49,58,47,23,97,66,28,29.96,29.73,7,1,19,0.81
2013-3-13,58,46,34,35,25,15,89,49,26,30.14,29.96,5,1,14,0.00
2013-3-14,53,41,29,24,16,12,60,38,19,30.29,30.14,4,0,11,0.00
2013-3-15,66,47,28,39,28,19,83,51,28,30.21,29.90,11,1,13,0.00
2013-3-16,78,64,56,44,41,36,56,43,27,29.90,29.70,10,2,17,0.00
2013-3-17,78,60,48,52,43,38,77,55,34,30.07,29.83,6,1,10,0.00
2013-3-18,47,42,39,42,40,38,97,90,72,30.11,29.85,4,0,11,0.79
2013-3-19,66,52,41,45,31,11,99,58,16,30.03,29.85,6,1,10,0.00
2013-3-20,56,49,42,26,13,7,50,25,16,30.10,29.77,4,0,8,0.00
2013-3-21,47,40,31,27,10,3,55,31,18,29.98,29.77,5,1,11,0.00
2013-3-22,52,40,25,23,15,9,69,38,22,30.09,29.98,6,0,7,0.00
2013-3-23,51,44,40,42,36,24,92,74,44,30.05,29.91,1,0,4,0.04
2013-3-24,43,40,38,42,39,36,95,93,87,29.92,29.54,5,0,11,0.70
2013-3-25,49,42,38,38,28,15,96,63,31,29.88,29.55,8,1,17,0.04
2013-3-26,48,39,28,24,23,21,80,53,36,30.18,29.88,5,1,11,0.00
2013-3-27,53,41,28,25,21,16,83,49,27,30.26,30.16,5,1,9,0.00
2013-3-28,56,44,31,25,20,15,73,42,21,30.30,30.18,6,1,9,0.00
2013-3-29,62,47,28,37,24,20,87,48,21,30.35,30.18,4,0,10,0.00
2013-3-30,65,54,46,47,43,36,96,68,39,30.22,30.05,2,0,5,0.22
2013-3-31,70,59,50,55,51,45,96,76,49,30.05,29.79,10,1,14,0.31
2013-4-1,73,63,55,56,44,33,97,58,23,29.93,29.82,7,1,12,0.04
2013-4-2,64,54,42,37,30,18,75,43,21,30.14,29.93,5,1,10,0.00
2013-4-3,61,53,45,26,19,13,37,26,20,30.26,30.10,4,0,9,0.00
2013-4-4,50,43,37,38,30,16,95,67,29,30.26,29.96,5,0,9,0.81
2013-4-5,64,49,37,45,40,35,95,74,37,30.03,29.91,4,0,7,0.00
2013-4-6,69,55,37,39,35,30,96,53,25,30.21,30.04,3,0,8,0.00
2013-4-7,72,59,43,49,43,32,79,57,35,30.25,30.08,5,1,11,0.00
2013-4-8,78,65,52,54,51,48,94,63,36,30.15,30.03,6,1,11,0.00
2013-4-9,83,68,53,58,54,51,94,64,37,30.17,30.06,3,0,11,0.00
2013-4-10,85,73,61,60,57,54,89,61,37,30.09,29.93,6,1,14,0.00
2013-4-11,81,70,61,66,60,55,92,72,48,29.95,29.72,6,1,11,0.01
2013-4-12,81,71,60,66,54,38,97,61,24,29.79,29.60,9,1,14,0.37
2013-4-13,75,61,45,46,40,34,93,51,23,30.00,29.80,2,0,7,0.00
2013-4-14,77,61,45,53,44,36,92,60,27,30.07,29.97,2,0,6,0.00
2013-4-15,72,64,58,60,56,50,93,77,59,30.16,29.95,1,0,4,0.01
2013-4-16,79,67,60,61,58,56,93,75,47,30.27,30.16,3,0,5,0.00
2013-4-17,84,70,57,63,58,54,97,71,37,30.22,30.06,3,0,6,0.00
2013-4-18,80,71,62,63,60,56,89,70,47,30.13,29.96,4,0,8,0.00
2013-4-19,80,68,54,67,62,50,95,82,55,29.96,29.71,7,1,13,0.19
2013-4-20,64,53,43,51,35,26,90,55,25,30.24,29.87,4,0,7,0.00
2013-4-21,64,52,41,41,38,32,92,61,39,30.43,30.25,2,0,12,0.00
2013-4-22,64,52,41,39,32,25,79,50,23,30.40,30.21,3,0,10,0.00
2013-4-23,69,57,48,52,46,37,87,66,51,30.25,30.09,4,0,8,0.00
2013-4-24,75,62,50,57,53,49,96,75,46,30.13,29.98,5,0,12,0.00
2013-4-25,72,61,49,58,43,28,88,55,20,30.24,30.02,5,0,10,0.00
2013-4-26,74,60,46,48,36,28,76,45,22,30.41,30.24,3,0,7,0.00
2013-4-27,66,58,54,57,50,44,97,77,52,30.34,30.23,1,0,3,0.18
2013-4-28,60,56,54,59,55,54,99,98,96,30.23,30.04,1,0,6,1.30
2013-4-29,73,63,56,62,59,56,100,89,58,30.03,29.92,2,0,5,0.09
2013-4-30,72,63,56,62,59,55,99,87,63,30.14,29.96,5,0,7,0.00
2013-5-1,64,59,53,57,55,52,97,85,74,30.26,30.13,5,0,9,0.00
2013-5-2,64,58,56,57,56,55,99,92,78,30.28,30.20,4,0,7,0.03
2013-5-3,68,61,54,55,52,43,89,73,55,30.21,30.09,4,0,9,0.00
2013-5-4,63,56,49,51,47,42,85,72,59,30.11,29.97,7,0,10,0.00
2013-5-5,59,54,51,59,52,48,99,92,79,30.01,29.84,5,1,11,0.24
2013-5-6,72,62,56,61,55,44,100,79,43,29.88,29.80,4,0,10,0.69
2013-5-7,71,58,45,54,49,44,98,74,44,29.93,29.84,5,0,9,0.00
2013-5-8,76,64,50,58,54,49,98,75,44,29.99,29.90,2,0,6,0.01
2013-5-9,83,67,52,59,54,50,99,68,33,30.06,29.97,2,0,5,0.00
2013-5-10,84,71,56,61,58,54,97,68,40,30.05,29.93,4,0,12,0.00
2013-5-11,82,72,64,64,60,59,95,68,48,29.94,29.77,3,0,11,0.17
2013-5-12,76,65,56,63,48,31,97,60,19,30.00,29.80,4,0,9,0.00
2013-5-13,70,57,44,42,35,25,90,49,23,30.15,30.02,5,0,10,0.00
2013-5-14,74,59,42,44,38,33,88,49,26,30.24,30.06,4,0,11,0.00
2013-5-15,90,71,52,61,54,44,88,57,32,30.07,29.90,3,0,9,0.00
2013-5-16,85,73,59,61,58,52,91,62,34,29.99,29.90,1,0,6,0.00
2013-5-17,87,73,60,63,60,55,95,68,37,30.05,29.97,3,0,11,0.00
2013-5-18,75,70,64,65,63,59,90,78,64,30.10,30.04,2,0,4,0.00
2013-5-19,76,69,66,70,66,63,98,91,70,30.09,30.00,2,0,8,0.61
2013-5-20,82,72,66,70,67,65,100,86,56,30.09,29.98,2,0,5,0.24
2013-5-21,88,71,64,71,68,61,99,90,53,30.02,29.92,3,0,5,0.69
2013-5-22,85,74,66,68,66,60,99,79,51,29.99,29.85,2,0,8,0.63
2013-5-23,80,70,64,68,65,61,99,85,61,29.94,29.80,2,0,5,0.03
2013-5-24,74,66,55,63,48,31,95,59,24,30.17,29.84,5,1,15,0.00
2013-5-25,78,61,43,51,42,35,96,56,24,30.29,30.13,3,0,8,0.00
2013-5-26,77,65,56,53,44,36,84,50,29,30.26,30.14,3,0,4,0.00
2013-5-27,84,68,52,60,54,50,95,65,35,30.25,30.12,2,0,5,0.00
2013-5-28,85,73,63,64,62,59,93,69,45,30.21,30.11,3,0,6,0.00
2013-5-29,86,73,60,64,61,58,94,67,39,30.22,30.12,4,0,7,0.00
2013-5-30,86,73,61,65,61,57,97,69,39,30.25,30.13,3,0,5,0.00
2013-5-31,89,76,64,67,65,62,97,71,44,30.20,30.06,2,0,7,0.00
2013-6-1,87,77,67,67,65,61,94,69,43,30.11,29.98,2,0,9,0.00
2013-6-2,85,75,69,70,66,64,97,75,51,30.02,29.86,3,0,13,0.61
2013-6-3,84,73,67,71,68,65,100,87,56,29.92,29.81,1,0,4,0.59
2013-6-4,84,74,66,67,66,62,96,75,54,30.03,29.91,2,0,6,0.00
2013-6-5,80,72,68,69,66,63,95,83,69,30.06,29.95,2,0,8,0.03
2013-6-6,75,71,68,74,70,68,99,96,88,29.96,29.78,1,0,6,0.88
2013-6-7,81,71,67,73,69,66,100,93,70,29.81,29.59,3,0,7,1.23
2013-6-8,86,74,67,70,68,65,100,84,50,30.07,29.80,1,0,6,0.02
2013-6-9,90,74,65,70,68,65,99,83,49,30.11,30.02,2,0,7,0.00
2013-6-10,84,73,68,74,70,67,98,92,64,30.05,29.88,3,0,10,0.93
2013-6-11,87,76,68,70,67,61,97,76,43,29.96,29.89,1,0,7,0.00
2013-6-12,94,78,64,74,69,63,99,75,48,29.98,29.85,3,0,6,0.00
2013-6-13,94,79,70,73,70,66,97,78,42,29.85,29.63,6,0,10,0.26
2013-6-14,83,71,60,69,59,51,98,70,35,29.99,29.73,6,0,10,0.00
2013-6-15,84,71,58,64,60,57,99,71,40,30.11,30.00,4,0,6,0.00
2013-6-16,88,75,62,67,64,60,93,72,44,30.12,29.99,4,0,8,0.00
2013-6-17,88,75,70,71,68,64,95,78,55,30.02,29.90,3,0,7,0.01
2013-6-18,86,75,70,72,70,68,97,85,58,29.94,29.75,5,0,10,0.09
2013-6-19,84,74,68,70,66,60,98,77,44,30.07,29.86,3,0,7,0.00
2013-6-20,84,74,65,66,64,61,96,74,49,30.19,30.07,3,0,7,0.00
2013-6-21,83,72,62,64,61,57,90,69,45,30.23,30.14,4,0,5,0.00
2013-6-22,85,74,65,68,65,58,87,73,55,30.19,30.08,3,0,5,0.00
2013-6-23,84,76,68,74,69,67,97,81,60,30.17,30.09,1,0,4,0.07
2013-6-24,85,75,71,76,71,69,96,87,65,30.18,30.08,2,0,4,0.12
2013-6-25,93,79,70,72,70,68,96,77,46,30.11,29.98,3,0,8,0.00
2013-6-26,92,78,70,72,69,67,96,76,47,30.01,29.87,3,0,7,0.00
2013-6-27,90,78,72,76,72,67,95,81,56,29.91,29.70,4,0,7,0.03
2013-6-28,93,80,70,74,70,66,99,76,45,29.72,29.55,3,0,9,0.28
2013-6-29,89,77,70,72,70,67,99,80,52,29.68,29.58,2,0,9,0.00
2013-6-30,86,75,66,74,70,66,98,87,62,29.81,29.67,3,0,5,0.55
2013-7-1,82,73,66,72,69,66,100,88,69,29.95,29.79,2,0,4,0.10
2013-7-2,78,73,71,71,70,69,97,91,74,30.11,29.94,5,0,8,0.08
2013-7-3,78,74,72,75,73,71,98,95,82,30.19,30.09,2,0,3,0.12
2013-7-4,89,78,72,74,72,69,98,83,55,30.21,30.11,3,0,7,0.06
2013-7-5,87,77,72,74,72,70,98,88,58,30.21,30.14,1,0,6,0.01
2013-7-6,86,75,70,75,72,70,99,90,63,30.20,30.08,2,0,6,0.01
2013-7-7,87,77,71,76,72,71,99,87,62,30.15,30.03,3,0,9,0.01
2013-7-8,86,77,71,75,72,70,100,87,60,30.15,30.07,2,0,5,0.01
2013-7-9,90,80,72,74,72,70,98,80,53,30.13,30.02,1,0,8,0.00
2013-7-10,89,78,69,75,71,68,96,80,59,30.09,29.92,2,0,8,0.01
2013-7-11,79,74,70,75,72,69,98,92,81,29.94,29.84,1,0,3,0.04
2013-7-12,82,74,70,72,70,67,99,88,68,29.97,29.84,2,0,5,0.00
2013-7-13,80,73,69,73,69,67,98,87,72,30.08,29.97,5,0,5,0.01
2013-7-14,87,76,71,75,72,70,99,87,59,30.24,30.05,3,0,8,0.01
2013-7-15,89,77,70,73,71,69,99,82,54,30.28,30.20,1,0,4,0.00
2013-7-16,93,80,69,73,70,67,99,76,44,30.27,30.17,2,0,5,0.00
2013-7-17,91,76,71,77,72,69,96,86,59,30.20,30.09,3,0,9,0.01
2013-7-18,93,78,68,75,72,68,99,82,52,30.14,30.03,1,0,4,0.00
2013-7-19,92,80,74,74,73,71,97,79,52,30.08,29.95,5,0,8,0.00
2013-7-20,86,78,74,74,72,70,93,82,64,30.01,29.89,5,0,7,0.00
2013-7-21,90,77,72,74,72,70,99,84,56,29.98,29.86,2,0,7,0.01
2013-7-22,86,76,71,74,72,71,100,88,63,29.96,29.81,5,0,8,0.00
2013-7-23,90,79,73,72,71,68,92,76,52,29.83,29.73,1,0,4,0.00
2013-7-24,92,78,69,74,70,66,99,81,47,29.82,29.71,4,0,9,0.02
2013-7-25,83,74,68,70,68,66,99,84,61,29.99,29.78,2,0,5,0.00
2013-7-26,87,75,66,69,68,66,99,79,50,30.08,29.98,2,0,6,0.00
2013-7-27,80,73,70,73,70,68,97,91,77,30.00,29.89,2,0,5,0.02
2013-7-28,88,77,70,73,70,69,98,82,53,29.96,29.89,2,0,5,0.00
2013-7-29,87,76,69,72,69,66,97,79,51,30.12,29.96,2,0,5,0.00
2013-7-30,85,75,67,70,66,60,97,75,48,30.19,30.10,1,0,3,0.00
2013-7-31,84,74,70,71,70,68,97,88,63,30.13,29.97,1,0,12,0.02
2013-8-1,88,75,71,74,72,70,98,90,57,29.97,29.84,1,0,4,0.01
2013-8-2,89,77,68,73,70,67,99,81,53,30.00,29.89,2,0,4,0.00
2013-8-3,90,79,72,75,71,69,98,80,51,30.00,29.90,4,0,5,0.00
2013-8-4,86,76,69,70,68,63,97,77,49,29.99,29.89,3,0,7,0.00
2013-8-5,86,76,68,68,66,64,93,74,49,30.05,29.94,2,0,5,0.00
2013-8-6,75,71,67,70,67,64,98,89,72,30.04,29.95,2,0,5,0.48
2013-8-7,86,76,69,71,69,65,96,81,57,30.07,29.98,3,0,6,0.00
2013-8-8,88,77,72,75,72,69,95,85,58,30.04,29.96,1,0,5,0.07
2013-8-9,90,80,73,76,73,70,96,81,61,30.04,29.97,5,0,9,0.00
2013-8-10,94,80,73,76,72,69,96,79,49,30.07,30.00,2,0,7,0.00
2013-8-11,93,80,72,74,72,70,98,77,51,30.09,29.99,2,0,6,0.00
2013-8-12,93,80,71,75,71,67,98,75,43,30.04,29.90,4,0,4,0.00
2013-8-13,89,79,72,75,71,67,95,78,55,29.93,29.76,3,0,10,0.01
2013-8-14,77,72,65,72,64,60,94,75,58,30.05,29.82,2,0,8,0.00
2013-8-15,74,67,61,61,58,54,87,72,52,30.12,30.03,4,0,8,0.00
2013-8-16,69,64,60,63,59,56,94,84,71,30.14,30.06,4,0,6,0.06
2013-8-17,66,63,61,65,63,59,99,97,85,30.16,30.10,2,0,5,0.93
2013-8-18,82,72,65,72,68,65,100,90,63,30.20,30.10,2,0,4,0.03
2013-8-19,75,71,67,71,70,67,99,95,82,30.15,30.06,1,0,2,0.32
2013-8-20,80,72,64,73,69,64,100,90,70,30.16,30.08,0,0,2,0.00
2013-8-21,86,75,70,74,72,70,99,89,59,30.20,30.08,1,0,4,0.01
2013-8-22,89,77,70,73,71,68,100,81,51,30.13,29.97,0,0,5,0.00
2013-8-23,90,76,68,72,69,66,99,81,48,30.03,29.93,3,0,7,0.00
2013-8-24,81,72,65,67,62,57,89,72,45,30.26,30.04,3,0,8,0.00
2013-8-25,80,69,60,63,60,56,98,75,45,30.36,30.25,2,0,8,0.00
2013-8-26,83,68,55,64,60,54,99,78,47,30.30,30.10,2,0,4,0.00
2013-8-27,88,73,61,71,66,60,99,79,47,30.12,29.96,2,0,5,0.00
2013-8-28,89,78,68,72,70,67,98,79,52,29.99,29.89,2,0,4,0.00
2013-8-29,92,80,72,73,71,69,95,76,49,29.94,29.85,3,0,9,0.00
2013-8-30,86,77,70,70,66,60,95,72,43,30.02,29.90,2,0,4,0.00
2013-8-31,88,76,67,75,70,65,98,84,58,29.94,29.83,5,0,9,0.05
2013-9-1,90,76,69,75,71,67,99,86,59,29.89,29.76,7,0,12,0.37
2013-9-2,88,77,70,75,72,68,100,86,53,29.88,29.78,1,0,4,0.00
2013-9-3,88,78,70,73,70,63,97,78,44,29.93,29.78,3,0,8,0.00
2013-9-4,87,75,64,70,64,60,94,72,43,30.06,29.93,2,0,5,0.00
2013-9-5,88,74,65,68,65,60,99,76,43,30.08,30.01,2,0,5,0.00
2013-9-6,83,73,65,64,60,57,92,67,42,30.15,30.04,2,0,5,0.00
2013-9-7,84,71,61,66,62,58,92,74,48,30.10,29.96,1,0,6,0.00
2013-9-8,87,74,62,69,64,60,99,75,42,29.96,29.89,2,0,7,0.00
2013-9-9,89,75,65,70,65,62,99,74,43,30.11,29.96,2,0,5,0.00
2013-9-10,90,76,66,71,67,65,99,76,47,30.20,30.11,1,0,4,0.00
2013-9-11,90,76,65,70,66,63,98,75,43,30.19,30.05,3,0,6,0.00
2013-9-12,89,77,67,70,67,65,92,74,49,30.05,29.81,3,0,4,0.00
2013-9-13,86,75,68,69,61,51,95,64,34,29.87,29.74,3,0,8,0.00
2013-9-14,76,67,58,58,53,47,82,61,47,30.09,29.87,3,0,10,0.00
2013-9-15,79,68,58,67,60,54,92,77,56,30.19,30.07,1,0,5,0.00
2013-9-16,85,76,66,70,64,57,95,71,39,30.11,30.01,4,0,6,0.00
2013-9-17,76,18,72,62,-63,-100,70,13,46,30.26,30.11,1,-763,5,0.00
2013-9-18,74,20,69,57,-58,-100,61,14,46,30.27,30.13,3,-727,5,0.00
2013-9-19,78,19,72,62,-61,-100,61,13,50,30.16,30.05,1,-757,3,0.00
2013-9-20,84,20,78,68,-60,-100,66,14,52,30.05,29.87,0,-757,3,0.00
2013-9-21,74,27,66,70,-34,-100,97,36,84,29.89,29.64,2,-610,5,1.29
2013-9-22,76,66,58,65,57,53,97,76,46,29.88,29.63,4,0,9,0.16
2013-9-23,74,64,56,60,56,52,96,77,51,30.04,29.88,2,0,4,0.00
2013-9-24,76,65,57,61,58,55,96,80,54,30.07,29.92,1,0,4,0.00
2013-9-25,69,64,61,63,60,58,97,89,75,29.92,29.84,0,0,2,0.23
2013-9-26,75,65,57,62,57,53,99,79,48,30.01,29.85,3,0,7,0.00
2013-9-27,74,63,54,57,54,52,94,75,46,30.16,30.00,5,0,7,0.00
2013-9-28,72,61,53,55,52,51,97,76,50,30.23,30.14,2,0,7,0.00
2013-9-29,72,62,54,57,54,51,94,77,53,30.15,30.01,3,0,5,0.00
2013-9-30,74,62,52,59,55,51,98,81,49,30.09,29.98,2,0,4,0.00
2013-10-1,80,65,52,62,57,52,99,79,47,30.11,30.02,4,0,6,0.00
2013-10-2,83,67,55,64,60,54,99,80,46,30.13,30.04,1,0,3,0.00
2013-10-3,85,69,59,67,61,57,99,79,41,30.11,30.04,3,0,6,0.00
2013-10-4,84,69,58,67,62,57,99,80,45,30.12,30.04,2,0,4,0.00
2013-10-5,86,72,60,69,64,59,99,79,47,30.10,30.00,1,0,3,0.00
2013-10-6,83,72,62,68,64,60,98,78,53,30.02,29.87,3,0,5,0.00
2013-10-7,76,71,66,71,67,52,98,86,62,29.95,29.78,3,0,8,0.01
2013-10-8,66,61,58,52,48,44,69,63,53,30.17,29.96,4,0,11,0.00
2013-10-9,70,61,51,53,48,43,80,64,48,30.19,30.09,3,0,11,0.00
2013-10-10,70,63,54,61,54,47,84,74,67,30.09,29.95,4,0,8,0.00
2013-10-11,78,69,60,62,59,55,87,72,50,29.97,29.89,2,0,5,0.00
2013-10-12,74,66,58,62,60,57,99,82,62,30.06,29.93,1,0,4,0.00
2013-10-13,68,65,63,62,61,60,92,86,78,30.19,30.06,2,0,7,0.00
2013-10-14,68,63,60,62,60,57,96,87,77,30.21,30.13,3,0,8,0.00
2013-10-15,73,63,56,57,54,48,92,75,43,30.17,30.02,3,0,8,0.00
2013-10-16,74,63,52,62,57,51,98,83,59,30.06,29.93,2,0,4,0.00
2013-10-17,70,64,60,65,62,59,97,91,74,29.95,29.84,1,0,6,0.00
2013-10-18,67,62,56,65,57,50,98,83,60,30.01,29.86,3,0,6,0.00
2013-10-19,67,60,54,61,56,50,97,86,58,29.94,29.82,1,0,6,0.00
2013-10-20,65,53,44,51,45,38,97,76,39,30.09,29.90,4,0,9,0.00
2013-10-21,69,54,42,54,48,41,99,81,48,30.14,29.98,2,0,6,0.00
2013-10-22,67,59,54,57,55,52,96,86,60,30.00,29.79,1,0,5,0.00
2013-10-23,67,57,46,57,43,29,97,64,26,30.01,29.70,6,0,10,0.00
2013-10-24,60,47,34,44,36,31,95,69,38,30.16,30.01,4,0,6,0.00
2013-10-25,52,46,37,42,33,27,80,62,38,30.38,30.16,2,0,13,0.00
2013-10-26,58,43,29,37,31,27,95,67,34,30.36,30.10,12,0,12,0.00
2013-10-27,68,52,38,49,42,36,96,74,42,30.13,30.04,3,0,6,0.00
2013-10-28,67,55,46,57,51,45,96,88,62,30.25,30.10,1,0,2,0.00
2013-10-29,72,58,49,58,53,48,99,84,53,30.32,30.22,1,0,4,0.00
2013-10-30,77,61,50,58,54,49,98,80,47,30.28,30.13,3,0,7,0.00
2013-10-31,72,63,54,63,57,53,98,81,60,30.16,29.88,3,0,7,0.00
2013-11-1,69,64,58,65,61,56,98,90,77,29.88,29.65,7,1,10,0.01
2013-11-2,71,57,46,58,51,41,100,83,38,29.95,29.70,2,0,10,0.00
2013-11-3,60,48,38,43,38,33,98,72,37,30.33,29.96,5,0,9,0.00
2013-11-4,58,47,38,37,34,29,88,64,33,30.51,30.33,2,0,7,0.00
2013-11-5,57,48,38,47,39,31,82,71,59,30.54,30.41,4,0,8,0.00
2013-11-6,70,58,49,57,50,46,94,78,53,30.41,30.10,1,0,3,0.00
2013-11-7,68,55,45,59,47,32,99,77,42,30.11,29.93,5,0,7,0.00
2013-11-8,57,46,36,34,29,21,83,55,25,30.31,30.11,3,0,7,0.00
2013-11-9,59,46,30,37,31,24,96,62,27,30.37,30.21,3,0,7,0.00
2013-11-10,71,53,39,42,37,32,91,59,27,30.22,30.09,2,0,6,0.00
2013-11-11,60,47,36,36,30,23,88,55,27,30.33,30.15,3,0,5,0.00
2013-11-12,63,42,36,40,35,31,94,80,31,30.14,30.05,5,0,6,0.00
2013-11-13,44,36,27,25,20,14,88,55,31,30.55,30.47,4,0,10,0.00
2013-11-14,56,38,24,28,23,17,93,63,22,30.49,30.34,3,0,7,0.00
2013-11-15,60,46,29,50,37,25,94,74,45,30.35,30.19,1,0,3,0.00
2013-11-16,64,55,50,56,52,49,98,91,73,30.25,30.17,1,0,2,0.00
2013-11-17,70,60,51,65,57,50,100,91,65,30.19,29.89,3,0,8,0.04
2013-11-18,77,66,53,66,50,27,98,62,27,29.95,29.80,5,1,10,0.01
2013-11-19,55,48,42,33,26,21,62,44,27,30.26,29.95,5,0,10,0.00
2013-11-20,54,45,37,35,30,26,70,58,43,30.43,30.25,2,0,8,0.00
2013-11-21,58,50,44,46,39,31,79,67,58,30.47,30.36,6,0,6,0.00
2013-11-22,68,58,51,58,51,43,89,77,64,30.37,30.09,6,0,7,0.00
2013-11-23,60,56,44,58,45,20,98,70,37,30.17,30.03,3,0,7,0.00
2013-11-24,43,35,26,20,9,1,53,35,20,30.52,30.17,6,0,12,0.00
2013-11-25,42,33,21,12,7,2,66,36,20,30.58,30.35,4,0,7,0.00
2013-11-26,46,39,32,46,32,8,99,82,28,30.34,29.60,1,0,7,1.51
2013-11-27,46,39,28,46,33,16,99,79,49,30.20,29.52,3,0,13,0.02
2013-11-28,45,32,21,24,20,14,92,65,29,30.49,30.20,2,0,4,0.00
2013-11-29,54,37,24,31,23,19,95,63,27,30.60,30.47,3,0,5,0.00
2013-11-30,47,37,29,27,24,20,82,61,37,30.63,30.38,2,0,7,0.00
2013-12-1,57,42,30,39,33,26,90,73,42,30.38,30.02,2,0,5,0.00
2013-12-2,58,45,32,41,36,31,97,75,41,30.02,29.81,3,0,5,0.00
2013-12-3,61,52,43,50,46,39,88,79,61,29.95,29.86,3,0,5,0.00
2013-12-4,64,58,54,58,56,50,98,92,78,30.07,29.93,2,0,4,0.00
2013-12-5,65,62,59,65,62,58,99,98,96,30.10,30.01,4,0,7,0.10
2013-12-6,76,69,63,64,62,60,98,80,61,30.05,29.95,8,2,14,0.00
2013-12-7,69,55,46,64,49,37,96,80,70,30.39,29.96,7,1,11,0.03
2013-12-8,46,38,34,37,34,32,96,86,68,30.41,30.28,3,0,8,0.01
2013-12-9,46,40,35,46,40,33,99,98,95,30.26,30.05,1,0,2,0.02
2013-12-10,52,46,31,48,40,22,100,83,34,30.32,29.89,4,0,15,0.01
2013-12-11,50,35,24,29,24,19,95,70,30,30.45,30.30,3,0,6,0.00
2013-12-12,47,35,25,27,20,11,94,62,25,30.42,30.28,4,0,8,0.00
2013-12-13,52,36,23,32,24,19,89,64,31,30.38,30.26,5,0,8,0.00
2013-12-14,48,42,39,47,37,28,97,83,59,30.27,29.80,4,0,9,0.14
2013-12-15,55,44,32,45,36,26,99,77,41,30.10,29.74,5,0,7,0.00
2013-12-16,57,41,27,35,30,26,95,69,34,30.18,30.09,4,0,7,0.00
2013-12-17,62,46,30,35,32,28,93,61,31,30.13,29.93,6,1,12,0.00
2013-12-18,52,42,31,27,20,10,77,45,19,30.29,30.04,2,0,9,0.00
2013-12-19,62,44,28,30,24,17,85,53,18,30.34,30.22,4,0,10,0.00
2013-12-20,63,51,39,51,43,30,91,74,53,30.24,30.13,9,0,10,0.00
2013-12-21,72,60,46,64,55,45,97,84,65,30.14,29.99,6,0,10,0.00
2013-12-22,71,67,63,67,64,62,99,92,78,30.06,29.97,7,1,14,1.24
2013-12-23,63,58,46,63,57,33,100,95,61,30.14,29.97,5,0,10,1.23
2013-12-24,48,41,30,34,25,14,74,54,35,30.43,30.13,4,0,9,0.00
2013-12-25,39,31,24,22,13,5,71,49,26,30.55,30.39,2,0,5,0.00
2013-12-26,52,40,34,29,21,16,79,49,27,30.39,30.25,2,0,4,0.00
2013-12-27,51,38,28,27,22,15,84,56,26,30.47,30.34,2,0,5,0.00
2013-12-28,55,40,25,37,27,23,92,64,31,30.41,30.10,2,0,6,0.00
2013-12-29,52,45,40,48,43,34,99,93,62,30.10,29.78,4,0,6,1.26
2013-12-30,53,43,34,45,39,33,100,87,60,30.11,29.93,3,0,4,0.00
2013-12-31,50,42,33,43,32,22,95,71,33,30.37,30.08,3,0,5,0.00
2014-1-1,50,39,31,34,29,25,91,71,39,30.39,30.14,1,0,4,0.00
2014-1-2,49,43,37,45,39,22,97,84,56,30.14,29.64,3,0,12,0.20